TimeEST,TemperatureF,Dew PointF,Humidity,Sea Level PressureIn,VisibilityMPH,Wind Direction,Wind SpeedMPH,Gust SpeedMPH,PrecipitationIn,Events,Conditions,WindDirDegrees,DateUTC
12:53 AM,59.0,55.0,87,30.20,10.0,NNE,3.5,-,N/A,,Clear,30,2012-12-04 05:53:00
1:53 AM,60.1,55.9,86,30.19,10.0,NNE,3.5,-,N/A,,Scattered Clouds,30,2012-12-04 06:53:00
2:53 AM,59.0,55.9,90,30.19,10.0,NE,4.6,-,N/A,,Clear,50,2012-12-04 07:53:00
3:53 AM,59.0,57.0,93,30.19,10.0,Calm,Calm,-,N/A,,Clear,0,2012-12-04 08:53:00
4:53 AM,57.9,57.0,97,30.19,10.0,NE,4.6,-,N/A,,Clear,50,2012-12-04 09:53:00
5:53 AM,59.0,57.9,96,30.19,10.0,NE,5.8,-,N/A,,Partly Cloudy,40,2012-12-04 10:53:00
6:53 AM,60.1,59.0,96,30.20,10.0,NE,4.6,-,N/A,,Clear,40,2012-12-04 11:53:00
7:53 AM,63.0,60.1,90,30.22,10.0,NE,5.8,-,N/A,,Clear,40,2012-12-04 12:53:00
8:53 AM,69.1,59.0,70,30.22,10.0,NE,8.1,-,N/A,,Clear,40,2012-12-04 13:53:00
9:53 AM,73.0,59.0,61,30.24,10.0,NE,9.2,-,N/A,,Scattered Clouds,50,2012-12-04 14:53:00
10:53 AM,75.9,61.0,60,30.24,10.0,ENE,11.5,-,N/A,,Mostly Cloudy,60,2012-12-04 15:53:00
11:53 AM,77.0,61.0,58,30.22,10.0,East,11.5,-,N/A,,Mostly Cloudy,80,2012-12-04 16:53:00
12:53 PM,80.1,57.0,45,30.17,10.0,ENE,12.7,-,N/A,,Scattered Clouds,70,2012-12-04 17:53:00
1:53 PM,81.0,57.9,45,30.15,10.0,East,11.5,-,N/A,,Mostly Cloudy,80,2012-12-04 18:53:00
2:53 PM,78.1,59.0,52,30.14,10.0,ENE,11.5,-,N/A,,Overcast,70,2012-12-04 19:53:00
3:53 PM,75.0,60.1,60,30.15,10.0,East,6.9,-,N/A,,Mostly Cloudy,90,2012-12-04 20:53:00
4:53 PM,75.0,60.1,60,30.16,10.0,NE,4.6,-,N/A,,Overcast,50,2012-12-04 21:53:00
5:53 PM,73.0,63.0,71,30.16,10.0,NE,6.9,-,N/A,,Overcast,50,2012-12-04 22:53:00
6:53 PM,71.1,62.1,73,30.17,10.0,ENE,8.1,-,N/A,,Mostly Cloudy,60,2012-12-04 23:53:00
7:53 PM,68.0,60.1,76,30.18,10.0,ENE,6.9,-,N/A,,Scattered Clouds,70,2012-12-05 00:53:00
8:53 PM,66.9,57.9,73,30.18,10.0,ENE,5.8,-,N/A,,Scattered Clouds,60,2012-12-05 01:53:00
9:53 PM,66.9,57.0,70,30.17,10.0,NE,6.9,-,N/A,,Overcast,50,2012-12-05 02:53:00
10:53 PM,64.9,57.0,75,30.16,10.0,NE,4.6,-,N/A,,Overcast,40,2012-12-05 03:53:00
11:53 PM,64.0,57.0,78,30.17,10.0,NE,4.6,-,N/A,,Mostly Cloudy,40,2012-12-05 04:53:00